Content
SEND FEEDBACK

Daily
Averages
Monthly
Summary
United States of America

JOSHUA TREE, CALIFORNIA


Home > North America > United States > California
Elevation: 2334 feet     Latitude: 34 08N     Longitude: 116 03W

WEATHER
 
SELECT A DAY
Number of Records: 133,895;   Date Range: 7/1/96 - 11/22/14
 
SHARE

PRINT THIS DATA

[ ← Previous Day ]
WEATHER ALMANAC - JANUARY 31, 2013
[ Next Day → ]
[ °C ]   °F
Weather ElementAverageHighLow
Temperature53.2 °F66.9 °F (2:56 pm)39.9 °F (6:56 am)
Dewpoint32 °F35.1 °F (9:56 am)28.9 °F (3:56 pm)
Humidity47.4 %73 % (6:56 am)25 % (2:56 pm)
Barometer30.25 in30.32 in (9:56 am)30.18 in (3:56 pm)
Wind Speed4.7 mph10.4 mph (2:56 pm)
Weather ElementAverage
Visibility10 mi
Wind DirectionS (183.9 °)

Weather ElementTotal
Precipitation---
Heating Degree Days11.6 (Base 65)
Growing Degree Days3.4 (Base 50)
Averaged from 23 records on January 31, 2013
WEATHER CONDITIONS BREAKOUT
WIND DIRECTION BREAKOUT
WEATHER BY HOUR - JANUARY 31, 2013
[ °C ]   °F
Local TimeTemperatureDewpointHumidityBarometerVisibilityWind DirectionWind SpeedGust SpeedPrecipitationEventsConditions
1:56 AM43.0 °F33.1 °F68 %30.29 in10.0 miWNW (300°)5.8 mphClear
2:56 AM43.0 °F33.1 °F68 %30.29 in10.0 miWNW (300°)9.2 mphClear
3:56 AM43.0 °F33.1 °F68 %30.27 in10.0 miWest (280°)8.1 mphClear
4:56 AM43.0 °F32.0 °F65 %30.27 in10.0 miWSW (250°)6.9 mphClear
5:56 AM42.1 °F32.0 °F67 %30.28 in10.0 miCalmClear
6:56 AM39.9 °F32.0 °F73 %30.29 in10.0 miCalmClear
7:56 AM45.0 °F33.1 °F63 %30.30 in10.0 miCalmPartly Cloudy
8:56 AM48.9 °F34.0 °F56 %30.31 in10.0 miCalmPartly Cloudy
9:56 AM55.9 °F35.1 °F45 %30.32 in10.0 miCalmPartly Cloudy
10:56 AM62.1 °F34.0 °F35 %30.30 in10.0 miNNE (30°)3.5 mphPartly Cloudy
11:56 AM62.1 °F30.9 °F31 %30.29 in10.0 miCalmPartly Cloudy
12:56 PM66.0 °F30.9 °F27 %30.24 in10.0 miNorth (350°)5.8 mphScattered Clouds
1:56 PM66.0 °F30.9 °F27 %30.21 in10.0 miNNW (340°)4.6 mphScattered Clouds
2:56 PM66.9 °F30.0 °F25 %30.19 in10.0 miNorth (10°)10.4 mphScattered Clouds
3:56 PM66.0 °F28.9 °F25 %30.18 in10.0 miNNW (340°)6.9 mphScattered Clouds
4:56 PM63.0 °F30.9 °F30 %30.18 in10.0 miNNW (330°)4.6 mphScattered Clouds
5:56 PM57.9 °F32.0 °F37 %30.20 in10.0 miWest (270°)8.1 mphClear
6:56 PM55.0 °F32.0 °F42 %30.21 in10.0 miWest (270°)10.4 mphClear
7:56 PM55.9 °F30.9 °F39 %30.21 in10.0 miWest (280°)9.2 mphClear
8:56 PM52.0 °F32.0 °F47 %30.22 in10.0 miNW (320°)3.5 mphClear
9:56 PM50.0 °F32.0 °F50 %30.22 in10.0 miCalmClear
10:56 PM48.9 °F32.0 °F52 %30.21 in10.0 miWest (280°)5.8 mphClear
11:56 PM48.9 °F30.9 °F50 %30.21 in10.0 miWest (280°)5.8 mphClear
Hourly data recorded from KNXP, located miles away from Joshua Tree, California







STORIES FROM OUR PARTNERS